Location: Rio Tanui
(39.9167°N, 8.5167°E)
Time: 02:14:09
(UTC+00:00)

Cosmos 1814 Rocket - Pass Details

Date: 08 February 2023
Orbit: 744 x 786 km, 74.1° (Epoch: 01 April)

Event Time Altitude Azimuth Distance (km) Brightness Sun altitude
Rises 18:34:43 0° 339° (NNW) 3,285 7.5 -19.9°
Reaches altitude 10° 18:37:08 10° 337° (NNW) 2,354 6.8 -20.3°
Maximum altitude 18:42:28 73° 254° (WSW) 822 4.2 -21.4°
Drops below altitude 10° 18:47:45 10° 170° (S) 2,330 6.4 -22.4°
Sets 18:50:08 0° 168° (SSE) 3,250 7.1 -22.8°
